KM4NDI Weather Reports


Display with metric or nautical units.
time (UTC)temp
F
wind
direction
speed
MPH
gust
MPH
rain 1hr
in
rain 24hr
in
rain mn
in
humidity
%
barometer
mb
20260902075530 72 0.0 0.0 0.00 0.00 0.00 99 1018.9
20260902074515 72 0.0 0.0 0.00 0.00 0.00 99 1018.7
20260902073558 72 0.0 0.0 0.00 0.00 0.00 99 1018.8
20260902072521 72 0.0 0.0 0.00 0.00 0.00 99 1018.9
20260902071524 72 0.0 0.0 0.00 0.00 0.00 99 1018.9
20260902070521 72 0.0 0.0 0.00 0.00 0.00 99 1018.8
20260902065518 72 0.0 0.0 0.00 0.00 0.00 99 1018.8
20260902064516 72 0.0 0.0 0.00 0.00 0.00 99 1019.0
20260902063539 72 0.0 0.0 0.00 0.00 0.00 99 1019.0
20260902062522 72 0.0 0.0 0.00 0.00 0.00 99 1019.0
20260902061525 73 0.0 0.0 0.00 0.00 0.00 99 1019.1
20260902060528 73 0.0 0.0 0.00 0.00 0.00 99 1019.2
20260902055531 73 0.0 0.0 0.00 0.00 0.00 99 1019.2
20260902054516 73 0.0 0.0 0.00 0.00 0.00 99 1019.2
20260902053520 73 0.0 0.0 0.00 0.00 0.00 99 1019.4
20260902052523 73 0.0 0.0 0.00 0.00 0.00 99 1019.4
20260902051526 73 0.0 0.0 0.00 0.00 0.00 99 1019.3
20260902050529 73 0.0 0.0 0.00 0.00 0.00 99 1019.2
20260902045532 74 0.0 0.0 0.00 0.00 0.00 99 1019.2
20260902044517 74 0.0 0.0 0.00 0.00 0.00 99 1019.4
20260902043600 74 0.0 0.0 0.00 0.00 0.00 99 1019.4
20260902042544 74 0.0 0.0 0.00 0.00 0.00 99 1019.4
20260902041527 74 0.0 0.0 0.00 0.00 0.00 99 1019.4
20260902040529 74 0.0 0.0 0.00 0.00 0.00 98 1019.4
20260902035515 74 0.0 0.0 0.00 0.00 0.00 98 1019.4
20260902034518 75 0.0 0.0 0.00 0.00 0.00 98 1019.4
20260902033521 75 0.0 0.0 0.00 0.00 0.00 97 1019.5
20260902032518 75 0.0 0.0 0.00 0.00 0.00 97 1019.4
20260902031515 75 0.0 0.0 0.00 0.00 0.00 96 1019.4
20260902030531 75 0.0 0.0 0.00 0.00 0.00 97 1019.4
20260902025516 76 0.0 0.0 0.00 0.00 0.00 96 1019.4
20260902024519 76 0.0 0.0 0.00 0.00 0.00 96 1019.4
20260902023602 76 0.0 0.0 0.00 0.00 0.00 95 1019.4
20260902022525 76 0.0 0.0 0.00 0.00 0.00 95 1019.4
20260902021548 77 0.0 0.0 0.00 0.00 0.00 94 1019.3
20260902020531 77 0.0 0.0 0.00 0.00 0.00 93 1019.2
20260902015516 77 0.0 0.0 0.00 0.00 0.00 92 1019.0
20260902014539 78 0.0 0.0 0.00 0.00 0.00 91 1018.9
20260902013523 78 0.0 0.0 0.00 0.00 0.00 89 1018.8
20260902012526 78 0.0 0.0 0.00 0.00 0.00 89 1018.7
20260902011529 79 0.0 0.0 0.00 0.00 0.00 87 1018.7
20260902010532 80 0.0 0.0 0.00 0.00 0.00 86 1018.6
20260902005517 80 0.0 0.0 0.00 0.00 0.00 84 1018.5
20260902004540 81 0.0 0.0 0.00 0.00 0.00 82 1018.5
20260902003524 82 0.0 0.0 0.00 0.00 0.00 80 1018.3
20260902002527 83 0.0 0.0 0.00 0.00 0.00 78 1018.4
20260902001524 84 0.0 0.0 0.00 0.00 0.00 76 1018.4
20260902000515 85 0.0 0.0 0.00 0.00 0.00 72 1018.5
20260901235518 86 0.0 0.0 0.00 0.00 0.00 70 1018.5
20260901234515 87 0.0 0.0 0.00 0.00 0.00 66 1018.7
20260901233524 88 0.0 0.0 0.00 0.00 0.00 62 1018.7
20260901232528 90 0.0 0.0 0.00 0.00 0.00 59 1018.5
20260901231531 91 0.0 0.0 0.00 0.00 0.00 56 1018.5
20260901230516 93 0.0 0.0 0.00 0.00 0.00 55 1018.5
20260901225539 94 0.0 0.0 0.00 0.00 0.00 50 1018.4
20260901224522 95 0.0 0.0 0.00 0.00 0.00 50 1018.4
20260901223525 98 0.0 0.0 0.00 0.00 0.00 45 1018.3
20260901222528 99 0.0 0.0 0.00 0.00 0.00 43 1018.3
20260901221532 99 0.0 0.0 0.00 0.00 0.00 45 1018.4
20260901220517 98 0.0 0.0 0.00 0.00 0.00 45 1018.4
20260901215520 95 0.0 0.0 0.00 0.00 0.00 49 1018.4
20260901214523 94 0.0 0.0 0.00 0.00 0.00 52 1018.4
20260901213526 94 0.0 0.0 0.00 0.00 0.00 51 1018.3
20260901212549 95 0.0 0.0 0.00 0.00 0.00 48 1018.5
20260901211532 96 0.0 0.0 0.00 0.00 0.00 51 1018.6
20260901210517 96 0.0 0.0 0.00 0.00 0.00 48 1018.8
20260901205520 96 0.0 0.0 0.00 0.00 0.00 49 1018.9
20260901204543 97 152 1.0 3.0 0.00 0.00 0.00 44 1018.7
20260901203521 97 0.0 2.0 0.00 0.00 0.00 48 1018.8
20260901202518 96 203 1.0 3.0 0.00 0.00 0.00 45 1019.2
20260901201535 96 0.0 0.0 0.00 0.00 0.00 50 1019.3
20260901200518 95 225 0.0 3.0 0.00 0.00 0.00 52 1019.4
20260901195521 94 0.0 0.0 0.00 0.00 0.00 50 1019.4
20260901194544 95 0.0 0.0 0.00 0.00 0.00 52 1019.4
20260901193547 96 113 0.0 2.0 0.00 0.00 0.00 49 1019.7
20260901192550 94 0.0 0.0 0.00 0.00 0.00 53 1019.9
20260901191515 93 294 0.0 3.0 0.00 0.00 0.00 51 1019.9
20260901190538 95 315 0.0 1.0 0.00 0.00 0.00 48 1019.9
20260901185522 97 0.0 0.0 0.00 0.00 0.00 47 1019.9
20260901184525 97 302 1.0 4.0 0.00 0.00 0.00 45 1020.2
20260901183528 94 0.0 0.0 0.00 0.00 0.00 51 1020.2
20260901182531 97 158 0.0 2.0 0.00 0.00 0.00 48 1020.2
20260901181516 95 240 0.0 3.0 0.00 0.00 0.00 49 1020.3
20260901180520 97 131 1.0 4.0 0.00 0.00 0.00 43 1020.4
20260901175523 97 158 0.0 2.0 0.00 0.00 0.00 44 1020.6
20260901174526 94 0.0 0.0 0.00 0.00 0.00 54 1020.7
20260901173529 96 23 0.0 3.0 0.00 0.00 0.00 50 1020.7
20260901172526 97 0.0 0.0 0.00 0.00 0.00 46 1020.9
20260901171537 95 0.0 0.0 0.00 0.00 0.00 49 1020.9
20260901170520 95 0.0 0.0 0.00 0.00 0.00 47 1021.0
20260901165518 96 281 1.0 4.0 0.00 0.00 0.00 46 1021.1
20260901164515 96 280 1.0 3.0 0.00 0.00 0.00 50 1021.3
20260901163530 95 0.0 2.0 0.00 0.00 0.00 50 1021.3
20260901162515 95 0.0 0.0 0.00 0.00 0.00 49 1021.3
20260901161518 94 0.0 0.0 0.00 0.00 0.00 49 1021.4
20260901160521 93 203 0.0 4.0 0.00 0.00 0.00 57 1021.5
20260901155524 93 0.0 0.0 0.00 0.00 0.00 55 1021.6
20260901154527 92 293 0.0 2.0 0.00 0.00 0.00 55 1021.7
20260901153530 92 270 0.0 1.0 0.00 0.00 0.00 58 1021.7
20260901152516 91 0.0 0.0 0.00 0.00 0.00 56 1021.8
20260901151519 91 0.0 1.0 0.00 0.00 0.00 67 1021.8
20260901150522 89 270 0.0 1.0 0.00 0.00 0.00 66 1021.8
20260901145525 89 0.0 0.0 0.00 0.00 0.00 73 1021.8
20260901144548 87 0.0 0.0 0.00 0.00 0.00 75 1021.9
20260901143531 88 0.0 0.0 0.00 0.00 0.00 72 1021.8
20260901142536 86 0.0 0.0 0.00 0.00 0.00 73 1021.9
20260901141520 84 0.0 0.0 0.00 0.00 0.00 79 1021.8
20260901140522 82 0.0 0.0 0.00 0.00 0.00 84 1021.8
20260901135526 79 0.0 0.0 0.00 0.00 0.00 92 1021.8
20260901134523 76 0.0 0.0 0.00 0.00 0.00 99 1021.8
20260901133520 75 0.0 0.0 0.00 0.00 0.00 99 1021.8
20260901132538 75 0.0 0.0 0.00 0.00 0.00 98 1021.9
20260901131520 73 0.0 0.0 0.00 0.00 0.00 99 1021.8
20260901130544 72 0.0 0.0 0.00 0.00 0.00 99 1021.8
20260901125526 71 0.0 0.0 0.00 0.00 0.00 99 1021.9
20260901124550 70 0.0 0.0 0.00 0.00 0.00 99 1021.8
20260901123535 70 0.0 0.0 0.00 0.00 0.00 99 1021.7
20260901122518 69 0.0 0.0 0.00 0.00 0.00 99 1021.7
20260901121521 69 0.0 0.0 0.00 0.00 0.00 99 1021.5
20260901120524 68 0.0 0.0 0.00 0.00 0.00 99 1021.3
20260901115527 68 0.0 0.0 0.00 0.00 0.00 99 1021.2
20260901114550 68 0.0 0.0 0.00 0.00 0.00 99 1021.1
20260901113515 68 0.0 0.0 0.00 0.00 0.00 99 1020.9
20260901112519 68 0.0 0.0 0.00 0.00 0.00 99 1020.9
20260901111522 68 0.0 0.0 0.00 0.00 0.00 99 1020.8
20260901110525 68 0.0 0.0 0.00 0.00 0.00 99 1020.7
20260901105528 69 0.0 0.0 0.00 0.00 0.00 99 1020.6
20260901104531 69 0.0 0.0 0.00 0.00 0.00 99 1020.4
20260901103516 68 0.0 0.0 0.00 0.00 0.00 99 1020.4
20260901102540 69 0.0 0.0 0.00 0.00 0.00 99 1020.4
20260901101522 69 0.0 0.0 0.00 0.00 0.00 99 1020.4
20260901100600 69 0.0 0.0 0.00 0.00 0.00 99 1020.4
20260901095517 69 0.0 0.0 0.00 0.00 0.00 99 1020.4
20260901094532 69 0.0 0.0 0.00 0.00 0.00 99 1020.4
20260901093517 69 0.0 0.0 0.00 0.00 0.00 99 1020.2
20260901092520 69 0.0 0.0 0.00 0.00 0.00 99 1020.2
20260901091523 69 0.0 0.0 0.00 0.00 0.00 99 1020.2
20260901090526 69 0.0 0.0 0.00 0.00 0.00 99 1020.1
20260901085529 70 0.0 0.0 0.00 0.00 0.00 99 1020.1
20260901084515 70 0.0 0.0 0.00 0.00 0.00 99 1019.9
20260901083518 70 0.0 0.0 0.00 0.00 0.00 99 1019.9
20260901082521 70 0.0 0.0 0.00 0.00 0.00 99 1019.9
20260901081524 70 0.0 0.0 0.00 0.00 0.00 99 1019.9
20260901080528 70 0.0 0.0 0.00 0.00 0.00 99 1019.9